SB KEPS @ AMSAT $ORB26038.1 2Line Orbital Elements 26038.AMSAT QST de W1STR AMSAT Orbital Elements for Amateur Satellites in TLE Format From Orbital Analysis Office New England Sci-Tech STEM Education Center Natick MA February 07, 2026 To all radio amateurs These element sets describe the orbits of various satellites in use by the amateur radio community. For details see: www.amsat.org/keplerian-elements-formats/ A daily update of element sets is available at: www.amsat.org/tle/daily-bulletin.txt or without bulletin text: www.amsat.org/tle/dailytle.txt AO-07 1 07530U 74089B 26037.99182642 -.00000047 00000-0 -27752-5 0 9993 2 07530 101.9972 49.8523 0012258 20.9760 36.4298 12.53695622344205 UO-11 1 14781U 84021B 26038.26128032 .00002604 00000-0 27306-3 0 9992 2 14781 97.7900 5.4471 0006050 250.4378 109.6187 14.90392275237776 AO-27 1 22825U 93061C 26038.14957770 .00000173 00000-0 82887-4 0 9995 2 22825 98.7048 105.5263 0009357 119.1133 241.0987 14.30902647688405 FO-29 1 24278U 96046B 26038.18652100 -.00000016 00000-0 17178-4 0 9996 2 24278 98.5421 264.7265 0350833 73.7757 290.1680 13.53266643455586 GO-32 1 25397U 98043D 26037.90281677 .00000136 00000-0 79038-4 0 9999 2 25397 98.9987 27.4306 0000773 178.6118 181.5062 14.24397158432780 ISS 1 25544U 98067A 26037.98653627 .00011965 00000-0 22894-3 0 9994 2 25544 51.6315 224.1327 0011143 71.6186 288.6013 15.48450046551571 NO-44 1 26931U 01043C 26037.96494660 .00000247 00000-0 12331-3 0 9997 2 26931 67.0487 221.0723 0007041 266.3534 93.6763 14.31894232271802 SO-50 1 27607U 02058C 26038.33361792 .00002593 00000-0 32395-3 0 9994 2 27607 64.5529 170.6446 0074410 286.1799 73.1127 14.82661015245209 CO-55 1 27844U 03031E 26038.00414119 .00000481 00000-0 22742-3 0 9994 2 27844 98.6775 48.1865 0009237 197.5390 162.5471 14.24239877173145 CO-57 1 27848U 03031J 26037.99814236 .00000403 00000-0 19627-3 0 9991 2 27848 98.6804 47.9978 0008794 216.6284 143.4294 14.23538936172851 RS-22 1 27939U 03042A 26038.30461983 .00001848 00000-0 29467-3 0 9994 2 27939 98.3401 219.0267 0010732 325.9155 158.1214 14.73165250196425 CO-58 1 28895U 05043F 26037.99604190 .00002872 00000-0 46336-3 0 9994 2 28895 98.2780 191.0538 0013234 257.6507 102.3219 14.72179849 82594 CO-65 1 32785U 08021C 26038.19316203 .00008460 00000-0 55432-3 0 9990 2 32785 97.8168 17.1415 0011273 106.9868 253.2595 15.07921009965596 CO-66 1 32791U 08021J 26038.21529728 .00027495 00000-0 10148-2 0 9991 2 32791 97.7495 30.4199 0005326 67.8376 292.3427 15.27724830967419 RS-30 1 32953U 08025A 26038.28696661 -.00000104 00000-0 -81917-3 0 9996 2 32953 82.4988 76.2466 0018546 232.6182 127.3210 12.43174311803556 SRMSAT 1 37841U 11058D 26037.29582517 .00000512 00000-0 13390-3 0 9992 2 37841 19.9712 131.7097 0011564 203.5607 189.1597 14.11535751739307 ZACUBE-1 1 39417U 13066B 26038.31406810 .00009461 00000-0 75305-3 0 9995 2 39417 97.8175 359.9947 0040848 324.9467 34.9068 14.99948505661252 Delfi-N3xt 1 39428U 13066N 26038.26122219 .00013406 00000-0 12195-2 0 9990 2 39428 97.8351 318.8792 0075425 279.1136 80.1555 14.93150121655222 GOMX-1 1 39430U 13066Q 26038.24195789 .00002141 00000-0 32838-3 0 9994 2 39430 97.6575 246.8437 0130514 134.3550 226.8440 14.68963805650837 LO-74 1 39440U 13066AA 26038.26543162 .00006902 00000-0 65258-3 0 9990 2 39440 97.8774 346.9105 0060852 97.7254 263.0881 14.92587710657603 AO-73 1 39444U 13066AE 26038.17612027 .00013058 00000-0 85589-3 0 9990 2 39444 97.8151 7.2229 0035839 287.0470 72.6832 15.07302567660067 DTUSAT-2 1 40030U 14033W 26038.04323479 .00012301 00000-0 70120-3 0 9999 2 40030 98.0823 27.7473 0007127 331.6527 28.4313 15.12930259632990 EO-80 1 40032U 14033Y 26038.04984584 .00012346 00000-0 70143-3 0 9995 2 40032 98.0704 27.0713 0005770 256.2610 103.7977 15.13056798632976 LILACSAT-2 1 40908U 15049K 26038.31585973 .00022064 00000-0 43971-3 0 9991 2 40908 97.4855 70.5060 0007858 18.5669 341.5866 15.46872924575640 Horyu-4 1 41340U 16012D 26038.07979669 .00088640 00000-0 11338-2 0 9998 2 41340 30.9913 281.2427 0001900 73.5614 286.5246 15.57826179550320 Lapan A3 1 41603U 16040E 26038.26564410 .00005176 00000-0 16902-3 0 9992 2 41603 97.1465 38.7961 0012277 116.7994 243.4505 15.32105406534910 CAS-2T 1 41847U 16066G 26038.22660256 .00002633 00000-0 37721-3 0 9998 2 41847 98.3943 115.4047 0343394 163.6156 197.6473 14.44359200486038 TechnoSat 1 42829U 17042E 26038.29210648 .00005381 00000-0 39231-3 0 9998 2 42829 97.4097 201.0993 0018129 172.3226 187.8281 15.03991787467171 AO-91 1 43017U 17073E 26038.12304956 .00012350 00000-0 56222-3 0 9993 2 43017 97.4896 268.0715 0158803 57.1252 304.5148 15.10178991445747 S-Net D 1 43186U 18014G 26038.30039443 .00007880 00000-0 42240-3 0 9999 2 43186 97.5459 303.9620 0010212 104.7012 255.5353 15.15212649439085 S-Net B 1 43187U 18014H 26038.30940466 .00007649 00000-0 41036-3 0 9991 2 43187 97.5466 303.9534 0010991 100.9057 259.3413 15.15186161439087 S-Net A 1 43188U 18014J 26038.29987040 .00007882 00000-0 42240-3 0 9996 2 43188 97.5474 304.1295 0010803 101.5498 258.6947 15.15218374439088 S-Net C 1 43189U 18014K 26038.24656215 .00007628 00000-0 40922-3 0 9992 2 43189 97.5492 304.1310 0012328 95.8228 264.4410 15.15177611437623 Ten-Koh 1 43677U 18084G 26038.20404002 .00004946 00000-0 37974-3 0 9995 2 43677 98.0729 225.1220 0009344 193.8195 166.2774 15.02232169396646 PO-101 1 43678U 18084H 26038.30100803 .00001339 00000-0 11339-3 0 9999 2 43678 98.1067 229.0890 0008477 221.8519 138.2056 14.99808874396747 QO-100 1 43700U 18090A 26038.27277498 .00000148 00000-0 00000-0 0 9990 2 43700 0.0146 113.7784 0002376 250.5456 257.0078 1.00271501 26377 MinXSS-2 1 43758U 18099A 26038.22721135 .00038810 00000-0 10262-2 0 9999 2 43758 97.4689 111.4747 0008811 19.8316 340.3270 15.38270889394098 AO-95 1 43770U 18099N 26038.11132890 .00016255 00000-0 68072-3 0 9997 2 43770 97.4570 99.0108 0010547 87.4683 272.7761 15.23573092393391 SNUSat 2 1 43782U 18099AA 26038.11797434 .00011337 00000-0 53503-3 0 9990 2 43782 97.4254 93.5799 0011528 38.1586 322.0463 15.19555968393264 SnugLite 1 43784U 18099AC 26038.08371125 .00016222 00000-0 67204-3 0 9994 2 43784 97.4073 93.8096 0003808 49.7319 310.4251 15.23981250393484 ITASat 1 1 43786U 18099AE 26038.11063133 .00009698 00000-0 49043-3 0 9997 2 43786 97.4229 92.2601 0014539 87.1333 273.1564 15.17154934393171 EAGLET 1 1 43790U 18099AJ 26038.11071216 .00005648 00000-0 33387-3 0 9998 2 43790 97.4428 91.1971 0012872 77.3518 282.9151 15.11793269392677 ESEO 1 43792U 18099AL 26038.04775625 .00002807 00000-0 20819-3 0 9997 2 43792 97.4173 80.9211 0013658 62.1889 298.0720 15.03787094392248 JO-97 1 43803U 18099AX 26038.20293765 .00023884 00000-0 84519-3 0 9993 2 43803 97.4318 100.8958 0006408 23.8630 336.2905 15.29128761393738 Suomi 100 1 43804U 18099AY 26038.24764942 .00018203 00000-0 72750-3 0 9991 2 43804 97.4385 99.3081 0011015 26.1741 334.0051 15.25116837393590 ISAT 1 43879U 18111D 26038.23587311 .00070489 00000-0 13637-2 0 9992 2 43879 97.5902 325.4222 0008735 67.1336 293.0835 15.47463555390966 UWE-4 1 43880U 18111E 26038.30901121 .00037751 00000-0 10082-2 0 9997 2 43880 97.5859 321.5465 0011904 75.5025 284.7539 15.37935778390761 Sparrow 1 43881U 18111F 26038.31853994 .00081276 00000-0 14109-2 0 9998 2 43881 97.6103 329.6443 0008127 91.9738 268.2444 15.50531584391110 Prox-1 1 44339U 19036A 26037.03795150 .00021208 00000-0 22764-2 0 9996 2 44339 23.9950 268.0259 0007003 320.3333 39.6653 14.87023021353902 Taurus 1 1 44530U 19059C 26038.34709968 .00007143 00000-0 11910-2 0 9994 2 44530 98.6266 195.3805 0008258 358.4669 1.6508 14.70284202339555 TO-108 1 44881U 19093C 26038.32328844 .00001140 00000-0 13542-3 0 9994 2 44881 97.7668 113.6719 0014212 148.8785 211.3276 14.86269656332125 FloripaSat 1 1 44885U 19093G 26038.28118547 .00009873 00000-0 75209-3 0 9999 2 44885 97.7888 131.7369 0011896 146.8705 213.3266 15.02219047333131 RS-44 1 44909U 19096E 26038.14831704 .00000010 00000-0 -14272-4 0 9990 2 44909 82.5173 66.1194 0218675 88.4565 274.1571 12.79746880285718 SALSAT 1 46495U 20068K 26038.28426372 .00012507 00000-0 46613-3 0 9995 2 46495 97.8838 33.6722 0011612 46.0409 314.1785 15.27539060295519 CSS (TIANHE-1) 1 48274U 21035A 26038.30606567 .00024969 00000-0 31115-3 0 9992 2 48274 41.4681 32.8450 0005159 20.6768 339.4279 15.59315504272862 CUTE 1 49263U 21088D 26038.18547136 .00041371 00000-0 43775-3 0 9992 2 49263 97.4263 128.7453 0004457 68.6706 291.5028 15.64044340242107 TeikyoSat 4 1 49396U 21102B 26038.04046451 .00003552 00000-0 22837-3 0 9990 2 49396 97.3838 72.5173 0012865 27.9436 332.2482 15.08964927233091 Z-Sat 1 49399U 21102E 26038.31548265 .00004357 00000-0 22244-3 0 9999 2 49399 97.3508 77.5594 0016643 345.9225 14.1543 15.17103039233742 KOSEN 1 1 49402U 21102H 26038.09847101 .00010022 00000-0 40629-3 0 9993 2 49402 97.3386 82.8335 0012907 311.6397 48.3735 15.24758473234189 HO-113 1 50466U 21131B 26038.30399255 .00000929 00000-0 30129-3 0 9992 2 50466 98.4992 131.4303 0005083 122.0891 238.0792 14.41210260216403 SNUGLITE 2 1 52899U 22065F 26038.32749492 .00001801 00000-0 35239-3 0 9992 2 52899 98.1976 183.5644 0008529 74.7903 285.4242 14.64042588191998 UmKA 1 (RS40S) 1 57172U 23091G 26038.27671033 .00008556 00000-0 40970-3 0 9992 2 57172 97.5242 97.5057 0012577 206.9733 153.0849 15.19128646144279 CubeBel-2 (EU11S) 1 57175U 23091K 26038.28555693 .00016557 00000-0 64836-3 0 9996 2 57175 97.5236 100.5430 0009994 206.8316 153.2406 15.25832747144474 RS-38S 1 57189U 23091Z 26038.26340233 .00023056 00000-0 75627-3 0 9993 2 57189 97.5259 105.4699 0008257 166.4157 193.7307 15.31587574144774 SONATE-2 1 59112U 24043Q 26038.31899586 .00044167 00000-0 81353-3 0 9994 2 59112 97.5359 181.8542 0008391 324.0053 36.0631 15.49000399107721 MO-122 1 60209U 24125G 26038.07733799 .00049837 00000-0 85728-3 0 9999 2 60209 97.2484 253.6540 0013097 344.6302 15.4551 15.50861288 89327 GRBBeta 1 60237U 24128C 26038.28943588 .00006847 00000-0 47378-3 0 9998 2 60237 61.9913 311.6285 0053874 108.0097 252.6876 15.05434974 86706 Curium One 1 60242U 24128H 26038.30112587 .00012694 00000-0 75963-3 0 9992 2 60242 61.9800 305.0382 0053970 104.8052 255.9030 15.10155712 86821 ROBUSTA-3A 1 60243U 24128J 26038.19801511 .00012144 00000-0 74122-3 0 9998 2 60243 61.9876 307.1977 0054175 102.3298 258.3868 15.09465332 86782 CatSat 1 60246U 24125J 26037.57797676 .00050172 00000-0 10181-2 0 9992 2 60246 97.2248 249.5396 0029010 306.1345 53.7220 15.45740606 87130 HYPERVIEW-1G (RS66S) 1 61772U 24199AP 26038.27136273 .00074176 00000-0 11361-2 0 9997 2 61772 97.3140 273.6337 0010765 40.9973 319.2088 15.54032547114374 AO-123 1 61781U 24199AY 26038.27798751 .00013699 00000-0 42482-3 0 9994 2 61781 97.3197 268.1498 0015799 57.5046 302.7721 15.33403740114005 HADES-R (SO-124) 1 62690U 25009CK 26032.99082617 .05625566 23964-5 28010-2 0 9991 2 62690 97.3531 123.7793 0009683 299.0009 61.0309 16.20765875 58841 HYDRA-T 1 62692U 25009CM 26028.19742799 .10589489 24473-5 20739-2 0 9999 2 62692 97.3569 119.0624 0010828 297.3030 62.7162 16.31546071 58115 JINJUSat 1B 1 63210U 25052A 26038.17785995 .00022473 00000-0 79886-3 0 9995 2 63210 97.4158 295.0614 0003711 154.5233 205.6191 15.29004780 50207 NUSHSAT 1 1 63211U 25052B 26038.25810565 .00029278 00000-0 99309-3 0 9999 2 63211 97.4138 295.3555 0003455 156.0273 204.1129 15.30480207 50231 TEVEL2-4 1 63213U 25052D 26037.69832003 .00023931 00000-0 83540-3 0 9999 2 63213 97.4058 294.2254 0002172 160.8404 199.2918 15.29589533 50131 TEVEL2-5 1 63214U 25052E 26038.16496873 .00023979 00000-0 83920-3 0 9998 2 63214 97.4061 294.6685 0002172 161.7555 198.3764 15.29506293 50204 TEVEL2-6 1 63215U 25052F 26038.23937630 .00026918 00000-0 94251-3 0 9993 2 63215 97.4060 294.7291 0002257 164.3629 195.7682 15.29466368 50212 TEVEL2-1 1 63217U 25052H 26038.22964838 .00025678 00000-0 91006-3 0 9991 2 63217 97.4035 294.4808 0001741 180.2835 179.8404 15.29080878 50202 TEVEL2-3 1 63218U 25052J 26038.22788027 .00025343 00000-0 89740-3 0 9997 2 63218 97.4036 294.4885 0001728 180.0983 180.0257 15.29111327 50200 TEVEL2-2 1 63219U 25052K 26038.23033963 .00025205 00000-0 89337-3 0 9990 2 63219 97.4039 294.4820 0001680 181.1659 178.9577 15.29081981 50205 TEVEL2-9 1 63237U 25052AD 26037.59591267 .00022572 00000-0 84168-3 0 9995 2 63237 97.4097 293.4737 0004643 239.9340 120.1439 15.27427447 50065 TEVEL2-7 1 63238U 25052AE 26038.20574482 .00023388 00000-0 87635-3 0 9993 2 63238 97.4099 294.0402 0004901 234.2093 125.8691 15.27258788 50156 TEVEL2-8 1 63239U 25052AF 26038.14678824 .00021385 00000-0 80239-3 0 9990 2 63239 97.4099 293.9629 0004850 236.0393 124.0385 15.27232267 50146 HYDRA-W 1 63490U 25052BL 26038.31666990 .00169964 00000-0 26535-2 0 9993 2 63490 97.3997 298.3296 0004016 186.3747 173.7456 15.53205168 50468 HADES-ICM (SO-125) 1 63492U 25052BN 26036.66560114 .00141387 00000-0 25651-2 0 9999 2 63492 97.4003 296.1435 0003805 209.7437 150.3598 15.49070261 50176 Dragonfly 1 65729U 98067XH 26031.05194254 .08662331 12285-4 96629-3 0 9997 2 65729 51.6000 237.6139 0006569 265.0285 94.9990 16.36242872 20999 RSP-03 1 65732U 98067XL 26037.72735522 .00753541 26934-3 14853-2 0 9999 2 65732 51.6170 206.5302 0006539 284.0297 75.9985 15.99425235 22011 BOTAN 1 65942U 98067XP 26037.75814844 .00356023 00000-0 15519-2 0 9997 2 65942 51.6190 212.8086 0005879 265.4607 94.5725 15.83205172 18674 CEVROSAT1 1 66309U 25248S 26038.18060939 .00006197 00000-0 30453-3 0 9991 2 66309 45.4050 98.0156 0002394 5.3476 354.7435 15.18921982 14738 SPIRONE 1 66657U 25274H 26038.25601419 .00003800 00000-0 37159-3 0 9996 2 66657 97.7421 329.5180 0013857 86.5657 273.7147 14.92868905 10836 K-HERO 1 66660U 25274L 26038.29893402 .00003814 00000-0 36829-3 0 9997 2 66660 97.7433 329.6212 0015987 90.5195 269.7857 14.93345049 10842 SNUGLITE-III DURI 1 66661U 25274M 26038.29273439 .00004024 00000-0 38712-3 0 9997 2 66661 97.7430 329.6266 0016598 91.6776 268.6345 14.93447991 10844 SilverSat 1 66909U 98067XV 26037.71391803 .00138156 00000-0 14992-2 0 9991 2 66909 51.6272 222.3150 0002550 223.1841 136.8954 15.62543187 10338 SAKHACUBE-CHOLBON 1 67290U 25313AU 26038.25309358 .00014076 00000-0 61506-3 0 9991 2 67290 97.4061 115.0940 0011068 93.5091 266.7411 15.22156216 6190 QMR-KWT 1 67291U 25313AV 26038.24989008 .00019932 00000-0 86124-3 0 9996 2 67291 97.4059 115.0981 0010776 93.2777 266.9692 15.22465071 6191 IO-86 1 40931U 25360.30710720 .00000000 00000-0 12800-3 0 00 2 40931 6.0006 332.5373 0012733 338.8432 8.1437 14.79075515 01 /EX